Wind_Speed
12 11 11 10 9 9 11 15 18 21 22 23 23 24 23 21 20 19 16 14 12 10 8 7 6 4 3 4 3 3 2 2 2 2 2 2 2 2 2 2 3 3 4
11 10 10 9 8 9 11 13 17 20 21 21 23 24 23 22 21 20 17 15 13 11 9 8 7 6 5 5 4 4 3 3 2 2 2 2 2 2 2 2 3 3 4
13 12 10 8 8 9 10 13 16 19 21 22 22 23 22 22 22 19 18 16 14 12 10 9 8 7 6 6 5 5 4 3 3 2 2 2 2 2 3 3 3 3 3
13 11 9 7 7 8 10 12 15 18 21 23 22 22 22 22 22 20 18 17 15 14 12 10 9 8 8 7 6 6 5 4 4 3 3 3 3 3 3 3 3 4 4
12 11 9 6 6 6 8 11 14 17 20 23 22 22 22 23 23 20 18 17 16 15 13 12 11 10 9 9 8 7 7 6 5 4 4 4 5 5 5 5 5 6 6
11 11 9 6 4 4 7 10 13 15 18 21 21 22 22 23 23 21 19 18 17 15 14 14 12 12 11 10 10 9 8 7 7 6 6 6 6 7 7 7 7 8 8
11 11 9 7 5 4 5 9 12 14 15 18 20 20 22 22 22 21 20 19 18 16 15 15 14 13 12 12 11 11 11 10 10 9 9 9 9 9 10 10 10 10 10
11 11 10 7 5 4 5 8 10 12 14 17 19 20 20 20 20 21 20 20 18 17 16 15 15 14 14 13 13 13 13 13 13 12 12 12 12 12 12 13 13 14 14
12 11 10 7 5 4 4 6 8 11 13 15 18 19 20 20 20 21 20 20 19 17 16 16 16 16 15 16 16 15 15 15 15 15 15 15 15 15 16 16 17 17 18
10 10 10 8 6 4 3 4 7 10 12 14 17 18 19 19 19 19 19 20 19 17 17 17 18 18 17 18 18 18 18 18 18 18 18 19 19 19 20 20 21 22 22
9 9 9 8 6 4 3 3 5 8 10 13 15 16 17 18 19 19 19 19 19 18 18 18 19 19 19 19 19 20 20 21 21 21 22 22 23 23 23 24 25 26 26
9 10 9 8 6 5 3 2 3 5 8 10 12 13 14 16 16 17 18 19 19 19 19 19 19 19 19 20 21 21 22 23 24 24 25 26 26 26 27 28 29 30 30
9 9 10 8 7 5 5 4 3 5 6 8 11 12 12 13 14 16 17 18 18 19 19 20 20 21 21 22 22 23 24 26 26 27 28 29 29 30 31 31 32 33 34
10 9 10 9 8 6 6 6 6 6 8 9 10 11 12 13 14 15 17 17 18 19 20 20 21 22 23 23 24 25 25 27 28 29 30 31 31 33 34 34 35 36 37
11 10 10 9 9 8 8 8 8 8 9 10 10 11 12 13 13 14 16 17 17 18 20 21 22 23 24 25 26 27 27 28 30 31 32 33 34 35 36 37 38 39 40
13 12 12 11 10 9 9 9 9 9 10 11 11 12 13 14 14 14 15 17 18 20 21 21 22 23 24 25 27 28 29 31 32 33 34 35 36 37 38 39 40 41 43
16 15 14 13 13 12 12 11 11 11 11 12 13 14 14 15 15 16 17 18 20 21 22 24 24 26 27 27 28 30 32 33 34 36 37 38 39 40 40 41 43 45 45
18 17 16 15 15 15 16 16 15 15 15 15 16 16 16 17 18 18 19 20 21 23 24 25 26 27 28 29 31 32 34 35 37 39 40 41 42 44 45 46 47 48 49
21 20 19 18 18 18 19 19 19 18 18 18 19 19 19 20 21 21 21 22 23 23 25 26 27 28 30 31 32 34 35 37 39 41 43 44 45 46 48 49 50 51 52
25 24 23 22 22 21 21 22 22 22 21 21 22 22 23 23 23 23 23 23 25 26 27 29 30 31 33 34 36 37 38 39 41 43 45 46 47 48 49 50 51 52 53
28 27 25 25 24 24 23 23 24 25 25 24 25 25 25 25 24 25 26 27 28 29 30 31 32 34 36 37 38 39 41 42 43 45 46 47 48 49 51 52 53 54 55
30 30 29 28 27 27 27 27 28 28 28 28 27 27 27 27 27 28 28 29 30 31 33 34 35 37 38 39 40 42 43 44 45 47 48 50 51 53 54 55 56 57 58
31 31 31 31 29 29 30 30 31 30 30 29 29 29 28 28 29 30 31 32 32 33 35 36 38 39 40 42 43 43 45 46 47 49 51 53 55 56 57 58 60 61 62
33 32 32 32 31 31 31 32 31 31 30 29 29 29 30 30 31 31 32 32 33 35 36 37 39 40 42 43 44 46 48 49 51 53 55 57 58 59 61 62 63 63 63
29 29 30 30 31 30 31 31 31 30 31 30 29 29 29 30 31 32 33 34 35 37 38 40 41 42 44 46 48 49 51 53 55 56 58 59 60 61 62 62 63 63 63
28 28 29 29 29 28 28 29 30 29 28 28 27 28 29 30 31 33 34 35 37 39 41 42 44 45 47 49 51 53 54 56 57 58 59 59 60 60 60 60 60 60 59
Wind_Direction
310 307 302 293 278 256 233 225 220 216 214 214 215 216 214 215 219 218 218 219 218 216 217 220 220 216 209 206 203 192 197 205 212 219 228 236 250 253 256 246 238 244 257
322 312 306 295 270 252 238 235 223 217 214 212 214 213 214 216 215 214 216 217 217 216 217 221 219 214 209 204 202 195 195 196 192 202 218 234 245 247 255 248 246 253 263
327 318 311 294 270 253 247 237 224 218 214 212 213 214 213 213 211 212 214 216 217 219 220 221 217 211 208 207 205 200 198 199 198 207 222 229 242 246 247 252 259 266 272
333 330 321 301 281 257 242 230 221 215 214 213 212 210 211 213 211 212 214 216 218 219 221 222 216 213 212 212 209 207 206 208 214 222 233 241 243 246 247 254 265 271 275
337 338 331 311 290 258 235 221 215 214 213 211 211 211 213 212 212 213 215 218 219 221 225 224 221 220 218 217 218 218 217 219 224 231 240 245 249 252 257 260 263 267 271
347 345 337 321 302 265 231 214 210 212 211 210 211 212 212 213 214 215 218 219 220 223 226 225 225 223 221 222 225 226 226 229 235 240 245 251 255 258 261 264 267 268 270
350 350 341 329 312 279 230 207 207 208 205 206 208 210 211 213 216 215 216 218 220 221 223 226 226 226 225 227 230 234 234 236 243 248 251 253 257 260 263 265 266 268 270
348 351 347 335 320 288 241 212 211 208 205 206 209 209 209 211 213 213 216 219 220 221 225 228 229 231 232 233 237 241 242 243 247 251 254 256 258 261 263 265 268 270 271
346 349 349 339 321 295 251 222 215 208 209 208 209 209 208 210 212 214 217 219 219 223 229 232 233 235 237 239 241 244 246 248 251 253 255 258 260 263 265 267 268 271 272
344 348 350 343 330 311 274 233 213 210 208 207 207 209 212 212 213 216 219 221 223 227 231 234 237 238 240 244 246 248 250 252 254 256 258 260 263 264 266 267 269 271 273
340 342 346 346 335 317 287 256 222 213 213 210 210 214 217 217 220 221 222 225 228 231 235 238 240 243 245 246 249 251 253 255 257 259 260 262 264 266 267 268 270 271 272
336 339 336 337 330 312 293 274 229 215 215 212 213 217 219 218 223 228 229 230 234 237 239 241 242 245 248 251 254 256 257 259 261 262 263 264 265 266 267 269 270 271 272
325 332 331 326 321 301 274 258 230 215 212 214 214 217 222 225 228 231 233 235 238 240 241 244 248 250 253 256 258 259 261 262 263 265 266 267 268 268 269 270 271 271 272
310 318 324 318 305 291 272 255 243 232 225 221 219 224 227 230 236 238 239 242 243 243 244 247 252 255 256 260 263 264 265 264 265 267 268 270 271 271 272 272 273 273 273
294 303 310 308 302 291 275 265 255 249 242 238 235 232 235 239 242 243 242 241 243 246 249 252 256 258 261 265 267 267 268 269 268 269 271 271 273 274 274 274 274 274 274
282 288 294 294 293 290 282 272 265 259 255 253 250 246 245 249 250 247 244 246 248 250 253 256 260 264 267 269 270 270 272 272 272 272 273 274 275 275 275 275 276 276 276
273 278 282 283 284 284 280 277 272 268 264 263 260 254 255 256 255 252 252 254 254 254 256 260 264 268 271 273 273 273 275 276 275 275 275 276 276 278 278 278 277 278 278
265 269 274 274 275 276 276 273 274 269 265 263 261 260 260 259 258 258 259 262 263 263 263 267 268 271 274 275 276 276 277 278 278 278 278 278 278 279 280 280 280 280 279
257 261 267 269 270 271 272 270 270 268 265 264 263 262 263 264 261 261 263 266 266 267 269 273 275 275 275 278 279 279 279 279 280 280 280 280 280 281 281 282 282 281 281
253 256 260 264 266 267 268 267 266 266 263 263 263 264 264 265 264 262 263 264 267 270 272 275 276 278 279 280 281 281 282 282 282 282 282 282 282 283 283 282 282 282 282
250 252 255 260 262 264 267 267 266 265 263 263 263 264 265 264 263 264 265 267 270 272 275 277 279 281 282 283 284 283 282 282 283 283 283 282 282 283 283 283 282 282 282
247 249 253 257 260 261 262 264 264 262 261 262 263 264 266 265 265 267 269 271 273 276 279 281 282 283 284 285 284 284 284 284 284 284 284 283 283 283 283 283 283 283 283
244 247 251 255 257 258 260 263 263 262 260 259 261 262 264 265 266 269 272 274 277 279 280 282 283 284 285 286 286 286 286 285 285 285 285 284 284 284 284 284 285 284 284
244 248 251 254 255 258 261 263 261 260 258 258 259 262 264 266 268 272 274 277 279 281 283 284 286 287 287 288 287 287 287 287 287 286 286 286 286 286 287 287 286 286 286
246 247 251 253 255 257 258 258 255 256 258 259 262 265 269 271 273 274 278 281 283 285 286 286 287 288 288 288 288 289 289 289 289 289 289 289 289 289 289 288 288 287 287
247 249 251 250 252 255 256 257 259 258 259 263 265 268 271 273 276 278 281 283 285 286 287 288 289 290 290 291 291 291 291 291 291 291 292 292 292 291 291 291 290 289 288
Height
5845 5842 5841 5839 5838 5838 5838 5840 5842 5844 5847 5851 5855 5858 5862 5865 5868 5871 5873 5875 5877 5879 5880 5881 5882 5883 5883 5884 5884 5884 5885 5885 5885 5885 5885 5885 5885 5885 5885 5885 5885 5885 5885
5842 5840 5839 5837 5836 5836 5837 5837 5839 5842 5845 5848 5852 5855 5859 5862 5865 5868 5871 5873 5875 5877 5879 5880 5881 5882 5883 5883 5884 5884 5884 5885 5885 5885 5885 5885 5885 5885 5884 5884 5885 5885 5884
5840 5838 5836 5834 5834 5833 5834 5835 5837 5839 5842 5845 5849 5852 5856 5859 5862 5866 5869 5871 5873 5875 5877 5878 5880 5881 5881 5882 5883 5883 5884 5884 5884 5885 5885 5885 5885 5885 5885 5884 5884 5884 5884
5838 5836 5833 5832 5831 5831 5831 5832 5834 5836 5839 5843 5846 5850 5853 5857 5860 5863 5866 5869 5871 5873 5875 5877 5878 5879 5880 5881 5882 5883 5883 5884 5884 5884 5884 5884 5884 5884 5884 5884 5884 5884 5883
5837 5834 5832 5830 5829 5828 5828 5829 5831 5834 5836 5840 5843 5847 5851 5855 5858 5861 5864 5867 5869 5871 5873 5875 5876 5878 5879 5880 5881 5882 5882 5883 5883 5884 5884 5883 5884 5884 5884 5884 5883 5883 5883
5836 5834 5831 5829 5828 5827 5826 5827 5829 5831 5833 5837 5840 5844 5848 5852 5855 5859 5862 5864 5867 5869 5871 5873 5875 5876 5877 5878 5879 5880 5881 5882 5882 5882 5882 5883 5883 5883 5883 5882 5882 5882 5882
5836 5833 5831 5828 5827 5826 5826 5827 5828 5830 5832 5835 5838 5842 5845 5849 5852 5856 5859 5861 5864 5867 5869 5871 5872 5874 5875 5876 5877 5878 5879 5880 5880 5880 5881 5881 5881 5881 5881 5881 5880 5880 5880
5835 5833 5830 5828 5827 5826 5826 5826 5827 5828 5831 5834 5837 5840 5843 5846 5849 5853 5856 5859 5861 5864 5866 5868 5870 5871 5872 5873 5874 5875 5876 5877 5878 5878 5878 5878 5878 5878 5878 5878 5878 5878 5877
5835 5832 5830 5828 5827 5826 5826 5826 5826 5827 5830 5832 5834 5837 5841 5844 5847 5850 5853 5856 5859 5861 5863 5865 5867 5868 5869 5870 5871 5872 5873 5874 5874 5875 5875 5875 5875 5875 5875 5875 5874 5874 5874
5835 5832 5830 5828 5827 5826 5826 5826 5826 5827 5828 5831 5833 5836 5839 5842 5845 5847 5850 5853 5856 5858 5860 5862 5863 5864 5865 5866 5867 5868 5869 5869 5870 5870 5871 5871 5871 5871 5870 5870 5870 5869 5869
5834 5832 5830 5828 5827 5827 5826 5826 5826 5827 5828 5830 5832 5834 5837 5840 5842 5845 5847 5850 5852 5854 5856 5858 5859 5860 5861 5862 5863 5863 5864 5864 5865 5865 5865 5865 5865 5865 5865 5864 5864 5863 5862
5834 5832 5830 5828 5827 5826 5826 5826 5826 5827 5828 5829 5831 5833 5835 5837 5840 5842 5844 5847 5849 5850 5852 5853 5855 5856 5857 5857 5858 5858 5859 5859 5859 5859 5859 5859 5859 5858 5858 5857 5857 5856 5855
5832 5831 5829 5828 5827 5826 5826 5827 5827 5827 5828 5829 5830 5832 5834 5836 5837 5839 5841 5843 5844 5846 5847 5849 5850 5851 5852 5852 5852 5852 5853 5853 5852 5852 5852 5852 5852 5851 5851 5850 5849 5848 5847
5831 5830 5828 5827 5826 5826 5826 5826 5827 5827 5828 5829 5830 5831 5832 5834 5835 5836 5837 5839 5840 5842 5843 5844 5845 5846 5846 5846 5846 5846 5846 5845 5845 5845 5845 5845 5844 5843 5842 5841 5840 5839 5838
5828 5828 5827 5826 5825 5825 5825 5825 5826 5826 5827 5828 5828 5829 5830 5831 5832 5833 5834 5835 5836 5837 5838 5839 5839 5840 5840 5840 5839 5839 5838 5838 5838 5837 5837 5836 5835 5834 5833 5832 5831 5829 5828
5825 5825 5825 5824 5824 5824 5824 5824 5824 5825 5825 5826 5826 5827 5828 5828 5829 5829 5830 5831 5832 5832 5833 5833 5834 5834 5833 5833 5832 5832 5831 5830 5829 5828 5828 5827 5825 5824 5822 5821 5820 5818 5817
5821 5821 5821 5821 5821 5821 5821 5822 5822 5822 5822 5823 5823 5824 5824 5825 5825 5826 5826 5826 5826 5827 5827 5827 5827 5827 5826 5826 5825 5824 5823 5822 5821 5819 5818 5817 5815 5813 5812 5810 5808 5806 5804
5816 5817 5817 5817 5817 5818 5818 5818 5818 5818 5819 5819 5819 5820 5820 5821 5821 5821 5821 5821 5821 5821 5821 5820 5820 5819 5819 5818 5817 5816 5814 5813 5811 5810 5808 5806 5804 5802 5800 5798 5795 5793 5791
5811 5812 5812 5812 5813 5813 5813 5813 5814 5814 5814 5814 5814 5815 5815 5815 5816 5816 5816 5815 5815 5814 5814 5813 5813 5812 5811 5810 5809 5807 5805 5803 5801 5799 5797 5794 5792 5790 5787 5785 5782 5779 5776
5804 5805 5806 5807 5807 5807 5808 5808 5808 5809 5809 5809 5809 5809 5809 5809 5809 5809 5809 5809 5808 5807 5806 5805 5804 5803 5802 5801 5799 5797 5795 5793 5790 5788 5785 5782 5780 5777 5774 5771 5768 5765 5762
5797 5798 5799 5800 5801 5801 5802 5802 5802 5803 5803 5803 5803 5803 5803 5803 5803 5802 5802 5801 5801 5799 5798 5797 5795 5794 5792 5791 5789 5786 5784 5781 5778 5775 5772 5770 5767 5763 5760 5757 5753 5750 5746
5789 5791 5792 5793 5794 5794 5795 5795 5795 5795 5796 5796 5796 5796 5796 5796 5795 5795 5794 5793 5792 5791 5789 5788 5786 5784 5782 5780 5777 5775 5772 5769 5766 5763 5759 5756 5753 5749 5745 5742 5738 5734 5730
5781 5782 5784 5785 5786 5787 5788 5788 5788 5788 5788 5788 5788 5788 5788 5788 5787 5786 5786 5785 5783 5781 5780 5778 5776 5774 5771 5768 5766 5763 5760 5756 5753 5749 5745 5741 5737 5733 5729 5726 5721 5717 5713
5772 5774 5776 5777 5778 5779 5779 5779 5780 5780 5779 5780 5780 5780 5779 5779 5778 5778 5777 5775 5774 5772 5770 5767 5765 5762 5760 5756 5753 5750 5747 5743 5739 5734 5730 5726 5721 5716 5712 5707 5703 5699 5695
5764 5765 5767 5769 5770 5771 5771 5771 5771 5771 5772 5772 5772 5771 5771 5770 5769 5769 5767 5766 5764 5762 5760 5757 5754 5751 5747 5744 5740 5736 5732 5727 5723 5718 5713 5708 5703 5698 5693 5688 5684 5679 5675
5756 5758 5759 5761 5762 5763 5764 5764 5764 5764 5764 5764 5764 5763 5763 5762 5761 5760 5758 5755 5754 5751 5748 5745 5742 5738 5734 5730 5726 5721 5716 5711 5706 5701 5695 5690 5685 5679 5674 5669 5664 5659 5655